Aérodrome :
LOGIN :

S'inscrire | Disclaimer

   EN    FR    IT 

 










Légende :    VFR   VFR Marginal   IFR   IFR Intensif   IFR Très Intensif
Visi : 
Plafond : 
>= 8 km
>= 3000ft
5 à 8 km
1000 à 3000 ft
1500m à 5 km
500 à 1000 ft
800 à 1500m
200 à 500 ft
< 800m
< 200 ft
Symboles :   Orages  Brouillard  Fortes neiges  Fortes précipitations  Vent > 20 kt
SIGMETs :   Divers  Orages  Givrage  Turbulence  Onde Orograph.  Cendres Volcan.







- Altitude de l'aérodrome : 17 ft
- Code IATA : MPL
- Voir les cartes d'approche


LFMT - Montpellier Méditerranée

DERNIER METAR :
  • 190030Z AUTO 03008KT 9000 NSC 04/03 Q1011 NOSIG

METARs EXPIRÉS :
  • 190000Z AUTO 03007KT 9000 NSC 04/03 Q1012 NOSIG
  • 182330Z AUTO 03007KT CAVOK 05/03 Q1012 NOSIG
  • 182300Z AUTO 04006KT CAVOK 05/03 Q1012 NOSIG
  • 182230Z AUTO 04006KT CAVOK 05/03 Q1012 NOSIG
  • 182200Z AUTO 03005KT CAVOK 05/03 Q1012 NOSIG

TAF TAF LFMT
Valide du 18 à 21h jusqu'au 19 à 21h UTC


182000Z 1821/1921 04010KT CAVOK
TEMPO 1911/1915 03010G20KT BKN050
TEMPO 1915/1921 RA BKN040
BECMG 1918/1921 SCT014 BKN020
ATIS : +33 4 67 13 11 70
Pas de NOTAMs connus pour ce terrain.



MET'MAP, la Météo Aéronautique d'un coup d'oeil ! - Copyright ORBIFLY Décembre 2007 - Disclaimer

ORBIFLY MET'MAP TEAM :

Programmation & Développement : Alexandra Zaïnal
Conception & Développement : Baudouin d'Aumeries
Co-Programmation & Développement : Marc-Olivier Méhu
Soutien technique & logistique : Manuel Goepfert

Contact : metmap@orbifly.com




SOURCES & CREDITS :

   NOAA